Time,TemperatureF,DewpointF,PressureIn,WindDirection,WindDirectionDegrees,WindSpeedMPH,WindSpeedGustMPH,Humidity,HourlyPrecipIn,Conditions,Clouds,dailyrainin,SoftwareType,DateUTC
2013-03-08 00:00:00,29.5,13.6,0.00,NE,46,0.0,0.0,51,0.00,,---,0.00,VWS V14.00,2013-03-08 05:00:00,
2013-03-08 00:10:00,29.5,13.6,0.00,NE,46,0.0,0.0,51,0.00,,---,0.00,VWS V14.00,2013-03-08 05:10:00,
2013-03-08 00:20:00,29.3,13.4,0.00,NE,46,0.0,0.0,51,0.00,,---,0.00,VWS V14.00,2013-03-08 05:20:00,
2013-03-08 00:30:00,28.9,13.1,0.00,NE,46,0.0,0.0,51,0.00,,---,0.00,VWS V14.00,2013-03-08 05:30:00,
2013-03-08 00:40:00,28.6,13.2,0.00,NE,46,0.0,0.0,52,0.00,,---,0.00,VWS V14.00,2013-03-08 05:40:00,
2013-03-08 00:50:00,28.2,12.9,0.00,NE,46,0.0,0.0,52,0.00,,---,0.00,VWS V14.00,2013-03-08 05:50:00,
2013-03-08 01:00:00,28.4,13.5,0.00,NE,46,0.0,0.0,53,0.00,,---,0.00,VWS V14.00,2013-03-08 06:00:00,
2013-03-08 01:10:00,28.4,13.5,0.00,NE,46,0.0,0.0,53,0.00,,---,0.00,VWS V14.00,2013-03-08 06:10:00,
2013-03-08 01:20:00,28.6,13.2,0.00,NE,46,0.0,0.0,52,0.00,,---,0.00,VWS V14.00,2013-03-08 06:20:00,
2013-03-08 01:30:00,28.6,13.6,0.00,NE,46,0.0,0.0,53,0.00,,---,0.00,VWS V14.00,2013-03-08 06:30:00,
2013-03-08 01:40:00,28.9,14.0,0.00,NE,46,0.0,0.0,53,0.00,,---,0.00,VWS V14.00,2013-03-08 06:40:00,
2013-03-08 01:50:00,28.6,13.6,0.00,NE,46,0.0,0.0,53,0.00,,---,0.00,VWS V14.00,2013-03-08 06:50:00,
2013-03-08 02:00:00,28.0,13.1,0.00,NE,46,0.0,0.0,53,0.00,,---,0.00,VWS V14.00,2013-03-08 07:00:00,
2013-03-08 02:10:00,27.5,13.1,0.00,NE,46,0.0,0.0,54,0.00,,---,0.00,VWS V14.00,2013-03-08 07:10:00,
2013-03-08 02:20:00,26.8,12.4,0.00,NE,46,0.0,0.0,54,0.00,,---,0.00,VWS V14.00,2013-03-08 07:20:00,
2013-03-08 02:30:00,27.0,13.8,0.00,NE,46,0.0,0.0,57,0.00,,---,0.00,VWS V14.00,2013-03-08 07:30:00,
2013-03-08 02:40:00,26.4,13.3,0.00,NE,46,0.0,0.0,57,0.00,,---,0.00,VWS V14.00,2013-03-08 07:40:00,
2013-03-08 02:50:00,25.7,12.6,0.00,NE,46,0.0,0.0,57,0.00,,---,0.00,VWS V14.00,2013-03-08 07:50:00,
2013-03-08 03:00:00,25.5,12.8,0.00,NE,46,0.0,0.0,58,0.00,,---,0.00,VWS V14.00,2013-03-08 08:00:00,
2013-03-08 03:10:00,25.0,12.3,0.00,NE,46,0.0,0.0,58,0.00,,---,0.00,VWS V14.00,2013-03-08 08:10:00,
2013-03-08 03:20:00,25.0,12.3,0.00,NE,46,0.0,0.0,58,0.00,,---,0.00,VWS V14.00,2013-03-08 08:20:00,
2013-03-08 03:30:00,25.0,12.3,0.00,NE,46,0.0,0.0,58,0.00,,---,0.00,VWS V14.00,2013-03-08 08:30:00,
2013-03-08 03:40:00,25.2,12.9,0.00,NE,46,0.0,0.0,59,0.00,,---,0.00,VWS V14.00,2013-03-08 08:40:00,
2013-03-08 03:50:00,25.0,12.7,0.00,NE,46,0.0,0.0,59,0.00,,---,0.00,VWS V14.00,2013-03-08 08:50:00,
2013-03-08 04:00:00,24.6,12.4,0.00,NE,46,0.0,0.0,59,0.00,,---,0.00,VWS V14.00,2013-03-08 09:00:00,
2013-03-08 04:10:00,24.6,12.7,0.00,NE,46,0.0,0.0,60,0.00,,---,0.00,VWS V14.00,2013-03-08 09:10:00,
2013-03-08 04:20:00,24.6,12.7,0.00,NE,46,0.0,0.0,60,0.00,,---,0.00,VWS V14.00,2013-03-08 09:20:00,
2013-03-08 04:30:00,24.4,12.6,0.00,NE,46,0.0,0.0,60,0.00,,---,0.00,VWS V14.00,2013-03-08 09:30:00,
2013-03-08 04:40:00,25.0,13.8,0.00,NE,46,0.0,0.0,62,0.00,,---,0.00,VWS V14.00,2013-03-08 09:40:00,
2013-03-08 04:50:00,24.8,13.3,0.00,NE,46,0.0,0.0,61,0.00,,---,0.00,VWS V14.00,2013-03-08 09:50:00,
2013-03-08 05:00:00,24.4,12.9,0.00,NE,46,0.0,0.0,61,0.00,,---,0.00,VWS V14.00,2013-03-08 10:00:00,
2013-03-08 05:10:00,24.3,12.8,0.00,NE,46,0.0,0.0,61,0.00,,---,0.00,VWS V14.00,2013-03-08 10:10:00,
2013-03-08 05:20:00,24.6,13.5,0.00,NE,46,0.0,0.0,62,0.00,,---,0.00,VWS V14.00,2013-03-08 10:20:00,
2013-03-08 05:30:00,24.8,13.6,0.00,NE,46,0.0,0.0,62,0.00,,---,0.00,VWS V14.00,2013-03-08 10:30:00,
2013-03-08 05:40:00,23.9,12.8,0.00,NE,46,0.0,0.0,62,0.00,,---,0.00,VWS V14.00,2013-03-08 10:40:00,
2013-03-08 05:50:00,23.9,13.1,0.00,NE,46,0.0,0.0,63,0.00,,---,0.00,VWS V14.00,2013-03-08 10:50:00,
2013-03-08 06:00:00,24.6,14.2,0.00,NE,46,0.0,0.0,64,0.00,,---,0.00,VWS V14.00,2013-03-08 11:00:00,
2013-03-08 06:10:00,23.5,12.4,0.00,NE,46,0.0,0.0,62,0.00,,---,0.00,VWS V14.00,2013-03-08 11:10:00,
2013-03-08 06:20:00,23.2,12.5,0.00,NE,46,0.0,0.0,63,0.00,,---,0.00,VWS V14.00,2013-03-08 11:20:00,
2013-03-08 06:30:00,23.2,12.5,0.00,NE,46,0.0,0.0,63,0.00,,---,0.00,VWS V14.00,2013-03-08 11:30:00,
2013-03-08 06:40:00,23.4,13.0,0.00,NE,46,0.0,0.0,64,0.00,,---,0.00,VWS V14.00,2013-03-08 11:40:00,
2013-03-08 06:50:00,22.8,12.5,0.00,NE,46,0.0,0.0,64,0.00,,---,0.00,VWS V14.00,2013-03-08 11:50:00,
2013-03-08 07:00:00,23.5,13.2,0.00,NE,46,0.0,0.0,64,0.00,,---,0.00,VWS V14.00,2013-03-08 12:00:00,
2013-03-08 07:10:00,24.3,14.2,0.00,NE,46,0.0,0.0,65,0.00,,---,0.00,VWS V14.00,2013-03-08 12:10:00,
2013-03-08 07:20:00,24.3,14.6,0.00,NE,46,0.0,0.0,66,0.00,,---,0.00,VWS V14.00,2013-03-08 12:20:00,
2013-03-08 07:30:00,24.1,14.4,0.00,NE,46,0.0,0.0,66,0.00,,---,0.00,VWS V14.00,2013-03-08 12:30:00,
2013-03-08 07:40:00,24.6,15.2,0.00,NE,46,0.0,0.0,67,0.00,,---,0.00,VWS V14.00,2013-03-08 12:40:00,
2013-03-08 07:50:00,25.3,16.3,0.00,NE,46,0.0,0.0,68,0.00,,---,0.00,VWS V14.00,2013-03-08 12:50:00,
2013-03-08 08:00:00,26.2,17.5,0.00,ENE,69,0.0,0.0,69,0.00,,---,0.00,VWS V14.00,2013-03-08 13:00:00,
2013-03-08 08:10:00,27.1,18.3,0.00,ENE,69,0.0,0.0,69,0.00,,---,0.00,VWS V14.00,2013-03-08 13:10:00,
2013-03-08 08:20:00,27.9,18.7,0.00,ENE,73,0.0,0.0,68,0.00,,---,0.00,VWS V14.00,2013-03-08 13:20:00,
2013-03-08 08:30:00,28.4,18.5,0.00,ENE,73,0.0,0.0,66,0.00,,---,0.00,VWS V14.00,2013-03-08 13:30:00,
2013-03-08 08:40:00,29.1,17.7,0.00,ESE,103,0.0,0.0,62,0.00,,---,0.00,VWS V14.00,2013-03-08 13:40:00,
2013-03-08 08:50:00,29.8,15.2,0.00,East,86,0.0,0.0,54,0.00,,---,0.00,VWS V14.00,2013-03-08 13:50:00,
2013-03-08 09:00:00,30.6,13.2,0.00,East,93,0.0,0.0,48,0.00,,---,0.00,VWS V14.00,2013-03-08 14:00:00,
2013-03-08 09:10:00,30.9,12.1,0.00,East,97,0.0,0.0,45,0.00,,---,0.00,VWS V14.00,2013-03-08 14:10:00,
2013-03-08 09:20:00,31.5,11.6,0.00,ESE,103,0.0,0.0,43,0.00,,---,0.00,VWS V14.00,2013-03-08 14:20:00,
2013-03-08 09:30:00,32.2,11.7,0.00,East,98,0.0,0.0,42,0.00,,---,0.00,VWS V14.00,2013-03-08 14:30:00,
2013-03-08 09:40:00,32.5,11.5,0.00,ESE,113,0.0,0.0,41,0.00,,---,0.00,VWS V14.00,2013-03-08 14:40:00,
2013-03-08 09:50:00,33.1,12.0,0.00,ESE,109,0.0,0.0,41,0.00,,---,0.00,VWS V14.00,2013-03-08 14:50:00,
2013-03-08 10:00:00,33.8,12.1,0.00,East,99,0.0,0.0,40,0.00,,---,0.00,VWS V14.00,2013-03-08 15:00:00,
2013-03-08 10:10:00,34.3,12.0,0.00,ESE,113,0.0,2.2,39,0.00,,---,0.00,VWS V14.00,2013-03-08 15:10:00,
2013-03-08 10:20:00,34.9,11.3,0.00,East,99,0.0,0.0,37,0.00,,---,0.00,VWS V14.00,2013-03-08 15:20:00,
2013-03-08 10:30:00,35.4,11.1,0.00,ESE,123,0.0,0.0,36,0.00,,---,0.00,VWS V14.00,2013-03-08 15:30:00,
2013-03-08 10:40:00,36.1,9.8,0.00,East,87,0.0,2.2,33,0.00,,---,0.00,VWS V14.00,2013-03-08 15:40:00,
2013-03-08 10:50:00,36.0,9.0,0.00,East,85,0.0,2.2,32,0.00,,---,0.00,VWS V14.00,2013-03-08 15:50:00,
2013-03-08 11:00:00,36.3,9.3,0.00,East,93,0.0,2.2,32,0.00,,---,0.00,VWS V14.00,2013-03-08 16:00:00,
2013-03-08 11:10:00,36.9,9.8,0.00,East,86,0.0,2.2,32,0.00,,---,0.00,VWS V14.00,2013-03-08 16:10:00,
2013-03-08 11:20:00,37.0,9.2,0.00,East,98,0.0,2.2,31,0.00,,---,0.00,VWS V14.00,2013-03-08 16:20:00,
2013-03-08 11:30:00,37.6,9.7,0.00,East,99,0.0,2.7,31,0.00,,---,0.00,VWS V14.00,2013-03-08 16:30:00,
2013-03-08 11:40:00,38.5,10.5,0.00,ESE,110,0.0,2.2,31,0.00,,---,0.00,VWS V14.00,2013-03-08 16:40:00,
2013-03-08 11:50:00,38.7,10.6,0.00,East,101,0.0,2.7,31,0.00,,---,0.00,VWS V14.00,2013-03-08 16:50:00,
2013-03-08 12:00:00,39.6,10.7,0.00,East,91,0.0,2.2,30,0.00,,---,0.00,VWS V14.00,2013-03-08 17:00:00,
2013-03-08 12:10:00,40.5,11.5,0.00,SSE,159,0.0,0.0,30,0.00,,---,0.00,VWS V14.00,2013-03-08 17:10:00,
2013-03-08 12:20:00,41.0,11.2,0.00,SSW,193,0.0,2.2,29,0.00,,---,0.00,VWS V14.00,2013-03-08 17:20:00,
2013-03-08 12:30:00,41.9,12.0,0.00,SSW,193,0.0,0.0,29,0.00,,---,0.00,VWS V14.00,2013-03-08 17:30:00,
2013-03-08 12:40:00,42.3,12.3,0.00,South,173,0.0,5.8,29,0.00,,---,0.00,VWS V14.00,2013-03-08 17:40:00,
2013-03-08 12:50:00,42.1,12.1,0.00,ESE,103,0.0,0.0,29,0.00,,---,0.00,VWS V14.00,2013-03-08 17:50:00,
2013-03-08 13:00:00,42.6,12.6,0.00,South,182,0.0,0.0,29,0.00,,---,0.00,VWS V14.00,2013-03-08 18:00:00,
2013-03-08 13:10:00,43.0,12.9,0.00,SSW,204,0.0,5.8,29,0.00,,---,0.00,VWS V14.00,2013-03-08 18:10:00,
2013-03-08 13:20:00,43.5,13.4,0.00,ESE,113,0.0,2.7,29,0.00,,---,0.00,VWS V14.00,2013-03-08 18:20:00,
2013-03-08 13:30:00,43.0,12.9,0.00,SSE,168,0.0,0.0,29,0.00,,---,0.00,VWS V14.00,2013-03-08 18:30:00,
2013-03-08 13:40:00,42.8,12.8,0.00,East,88,0.0,0.0,29,0.00,,---,0.00,VWS V14.00,2013-03-08 18:40:00,
2013-03-08 13:50:00,43.0,12.9,0.00,SE,139,0.0,0.0,29,0.00,,---,0.00,VWS V14.00,2013-03-08 18:50:00,
2013-03-08 14:00:00,44.1,13.9,0.00,SE,124,0.0,4.0,29,0.00,,---,0.00,VWS V14.00,2013-03-08 19:00:00,
2013-03-08 14:10:00,42.8,12.8,0.00,ESE,103,0.0,2.7,29,0.00,,---,0.00,VWS V14.00,2013-03-08 19:10:00,
2013-03-08 14:20:00,43.7,13.5,0.00,ESE,115,0.0,0.0,29,0.00,,---,0.00,VWS V14.00,2013-03-08 19:20:00,
2013-03-08 14:30:00,44.1,13.9,0.00,SE,129,0.0,2.2,29,0.00,,---,0.00,VWS V14.00,2013-03-08 19:30:00,
2013-03-08 14:40:00,44.8,13.7,0.00,SSE,147,0.0,3.1,28,0.00,,---,0.00,VWS V14.00,2013-03-08 19:40:00,
2013-03-08 14:50:00,45.3,14.1,0.00,SE,132,0.0,0.0,28,0.00,,---,0.00,VWS V14.00,2013-03-08 19:50:00,
2013-03-08 15:00:00,45.1,14.0,0.00,South,170,0.0,0.0,28,0.00,,---,0.00,VWS V14.00,2013-03-08 20:00:00,
2013-03-08 15:10:00,54.0,19.9,0.00,ESE,116,0.0,2.2,26,0.00,,---,0.00,VWS V14.00,2013-03-08 20:10:00,
2013-03-08 15:20:00,59.5,23.7,0.00,East,90,0.0,0.0,25,0.00,,---,0.00,VWS V14.00,2013-03-08 20:20:00,
2013-03-08 15:30:00,61.7,24.6,0.00,ENE,57,0.0,2.2,24,0.00,,---,0.00,VWS V14.00,2013-03-08 20:30:00,
2013-03-08 15:40:00,57.6,22.0,0.00,ENE,67,0.0,3.1,25,0.00,,---,0.00,VWS V14.00,2013-03-08 20:40:00,
2013-03-08 15:50:00,59.0,23.2,0.00,East,84,2.2,3.1,25,0.00,,---,0.00,VWS V14.00,2013-03-08 20:50:00,
2013-03-08 16:00:00,65.1,26.4,0.00,East,89,0.0,2.2,23,0.00,,---,0.00,VWS V14.00,2013-03-08 21:00:00,
2013-03-08 16:10:00,61.7,24.6,0.00,ENE,65,0.0,2.7,24,0.00,,---,0.00,VWS V14.00,2013-03-08 21:10:00,
2013-03-08 16:20:00,64.6,26.0,0.00,ESE,122,0.0,2.7,23,0.00,,---,0.00,VWS V14.00,2013-03-08 21:20:00,
2013-03-08 16:30:00,63.5,26.1,0.00,ESE,118,0.0,2.2,24,0.00,,---,0.00,VWS V14.00,2013-03-08 21:30:00,
2013-03-08 16:40:00,62.2,25.0,0.00,ESE,104,2.2,2.7,24,0.00,,---,0.00,VWS V14.00,2013-03-08 21:40:00,
2013-03-08 16:50:00,61.3,24.3,0.00,ENE,72,2.7,2.7,24,0.00,,---,0.00,VWS V14.00,2013-03-08 21:50:00,
2013-03-08 17:00:00,57.9,22.3,0.00,East,83,0.0,3.1,25,0.00,,---,0.00,VWS V14.00,2013-03-08 22:00:00,
2013-03-08 17:10:00,58.5,22.8,0.00,East,85,2.2,2.7,25,0.00,,---,0.00,VWS V14.00,2013-03-08 22:10:00,
2013-03-08 17:20:00,58.1,22.5,0.00,East,97,0.0,2.7,25,0.00,,---,0.00,VWS V14.00,2013-03-08 22:20:00,
2013-03-08 17:30:00,60.1,24.2,0.00,ENE,72,2.2,2.2,25,0.00,,---,0.00,VWS V14.00,2013-03-08 22:30:00,
2013-03-08 17:40:00,56.3,21.0,0.00,ESE,104,0.0,2.7,25,0.00,,---,0.00,VWS V14.00,2013-03-08 22:40:00,
2013-03-08 17:50:00,57.6,22.0,0.00,ESE,110,0.0,2.7,25,0.00,,---,0.00,VWS V14.00,2013-03-08 22:50:00,
2013-03-08 18:00:00,57.6,22.0,0.00,ESE,115,0.0,0.0,25,0.00,,---,0.00,VWS V14.00,2013-03-08 23:00:00,
2013-03-08 18:10:00,56.5,21.1,0.00,East,99,0.0,0.0,25,0.00,,---,0.00,VWS V14.00,2013-03-08 23:10:00,
2013-03-08 18:20:00,52.3,18.5,0.00,East,91,0.0,0.0,26,0.00,,---,0.00,VWS V14.00,2013-03-08 23:20:00,
2013-03-08 18:30:00,46.0,14.8,0.00,ESE,118,0.0,0.0,28,0.00,,---,0.00,VWS V14.00,2013-03-08 23:30:00,
2013-03-08 18:40:00,42.1,12.1,0.00,East,81,0.0,0.0,29,0.00,,---,0.00,VWS V14.00,2013-03-08 23:40:00,
2013-03-08 18:50:00,39.9,11.0,0.00,East,81,0.0,0.0,30,0.00,,---,0.00,VWS V14.00,2013-03-08 23:50:00,
2013-03-08 19:00:00,38.5,11.9,0.00,East,81,0.0,0.0,33,0.00,,---,0.00,VWS V14.00,2013-03-09 00:00:00,
2013-03-08 19:10:00,37.4,12.9,0.00,East,81,0.0,0.0,36,0.00,,---,0.00,VWS V14.00,2013-03-09 00:10:00,
2013-03-08 19:20:00,36.7,12.9,0.00,East,81,0.0,0.0,37,0.00,,---,0.00,VWS V14.00,2013-03-09 00:20:00,
2013-03-08 19:30:00,36.1,13.6,0.00,East,81,0.0,0.0,39,0.00,,---,0.00,VWS V14.00,2013-03-09 00:30:00,
2013-03-08 19:40:00,35.6,13.1,0.00,East,81,0.0,0.0,39,0.00,,---,0.00,VWS V14.00,2013-03-09 00:40:00,
2013-03-08 19:50:00,35.1,13.2,0.00,East,81,0.0,0.0,40,0.00,,---,0.00,VWS V14.00,2013-03-09 00:50:00,
2013-03-08 20:00:00,34.5,12.7,0.00,East,81,0.0,0.0,40,0.00,,---,0.00,VWS V14.00,2013-03-09 01:00:00,
2013-03-08 20:10:00,34.3,13.1,0.00,East,81,0.0,0.0,41,0.00,,---,0.00,VWS V14.00,2013-03-09 01:10:00,
2013-03-08 20:20:00,34.0,12.8,0.00,ESE,106,0.0,0.0,41,0.00,,---,0.00,VWS V14.00,2013-03-09 01:20:00,
2013-03-08 20:30:00,33.8,13.1,0.00,ESE,102,0.0,0.0,42,0.00,,---,0.00,VWS V14.00,2013-03-09 01:30:00,
2013-03-08 20:40:00,33.4,12.8,0.00,East,101,0.0,0.0,42,0.00,,---,0.00,VWS V14.00,2013-03-09 01:40:00,
2013-03-08 20:50:00,33.3,13.2,0.00,East,101,0.0,0.0,43,0.00,,---,0.00,VWS V14.00,2013-03-09 01:50:00,
2013-03-08 21:00:00,33.4,13.4,0.00,East,101,0.0,0.0,43,0.00,,---,0.00,VWS V14.00,2013-03-09 02:00:00,
2013-03-08 21:10:00,33.1,12.5,0.00,East,101,0.0,0.0,42,0.00,,---,0.00,VWS V14.00,2013-03-09 02:10:00,
2013-03-08 21:20:00,32.7,12.2,0.00,East,101,0.0,0.0,42,0.00,,---,0.00,VWS V14.00,2013-03-09 02:20:00,
2013-03-08 21:30:00,32.5,12.0,0.00,East,101,0.0,0.0,42,0.00,,---,0.00,VWS V14.00,2013-03-09 02:30:00,
2013-03-08 21:40:00,32.5,12.0,0.00,East,101,0.0,0.0,42,0.00,,---,0.00,VWS V14.00,2013-03-09 02:40:00,
2013-03-08 21:50:00,32.2,11.1,0.00,East,101,0.0,0.0,41,0.00,,---,0.00,VWS V14.00,2013-03-09 02:50:00,
2013-03-08 22:00:00,32.0,11.5,0.00,East,101,0.0,0.0,42,0.00,,---,0.00,VWS V14.00,2013-03-09 03:00:00,
2013-03-08 22:10:00,31.5,11.0,0.00,East,101,0.0,0.0,42,0.00,,---,0.00,VWS V14.00,2013-03-09 03:10:00,
2013-03-08 22:20:00,31.1,10.7,0.00,East,101,0.0,0.0,42,0.00,,---,0.00,VWS V14.00,2013-03-09 03:20:00,
2013-03-08 22:30:00,31.1,11.2,0.00,East,101,0.0,0.0,43,0.00,,---,0.00,VWS V14.00,2013-03-09 03:30:00,
2013-03-08 22:40:00,31.3,11.9,0.00,East,101,0.0,0.0,44,0.00,,---,0.00,VWS V14.00,2013-03-09 03:40:00,
2013-03-08 22:50:00,31.5,12.1,0.00,East,101,0.0,0.0,44,0.00,,---,0.00,VWS V14.00,2013-03-09 03:50:00,
2013-03-08 23:00:00,31.8,11.9,0.00,East,101,0.0,0.0,43,0.00,,---,0.00,VWS V14.00,2013-03-09 04:00:00,
2013-03-08 23:10:00,32.0,12.1,0.00,East,101,0.0,0.0,43,0.00,,---,0.00,VWS V14.00,2013-03-09 04:10:00,
2013-03-08 23:20:00,32.0,12.1,0.00,ESE,122,0.0,0.0,43,0.00,,---,0.00,VWS V14.00,2013-03-09 04:20:00,
2013-03-08 23:30:00,31.6,11.7,0.00,ESE,121,0.0,0.0,43,0.00,,---,0.00,VWS V14.00,2013-03-09 04:30:00,
2013-03-08 23:40:00,31.6,11.7,0.00,ESE,121,0.0,0.0,43,0.00,,---,0.00,VWS V14.00,2013-03-09 04:40:00,
2013-03-08 23:50:00,31.6,11.7,0.00,ESE,121,0.0,0.0,43,0.00,,---,0.00,VWS V14.00,2013-03-09 04:50:00,